TimePST,TemperatureF,Dew PointF,Humidity,Sea Level PressureIn,VisibilityMPH,Wind Direction,Wind SpeedMPH,Gust SpeedMPH,PrecipitationIn,Events,Conditions,WindDirDegrees,DateUTC
12:53 AM,63.0,44.1,50,30.00,10.0,ESE,5.8,-,N/A,,Scattered Clouds,110,2013-11-08 08:53:00
1:53 AM,59.0,39.0,48,29.99,9.0,East,4.6,-,N/A,,Scattered Clouds,100,2013-11-08 09:53:00
2:53 AM,59.0,36.0,42,29.99,10.0,East,4.6,-,N/A,,Scattered Clouds,80,2013-11-08 10:53:00
3:53 AM,57.0,39.9,53,29.99,10.0,East,4.6,-,N/A,,Scattered Clouds,90,2013-11-08 11:53:00
4:53 AM,57.0,43.0,59,29.99,10.0,East,5.8,-,N/A,,Partly Cloudy,80,2013-11-08 12:53:00
5:53 AM,55.4,48.2,77,30.00,10.0,East,5.8,-,N/A,,Scattered Clouds,80,2013-11-08 13:53:00
6:53 AM,57.9,45.0,62,30.01,10.0,ESE,5.8,-,N/A,,Scattered Clouds,110,2013-11-08 14:53:00
7:53 AM,62.6,44.6,52,30.03,10.0,East,4.6,-,N/A,,Scattered Clouds,90,2013-11-08 15:53:00
8:25 AM,64.4,46.4,52,30.04,10.0,East,5.8,-,N/A,,Scattered Clouds,100,2013-11-08 16:25:00
8:53 AM,66.2,48.2,52,30.03,10.0,ESE,5.8,-,N/A,,Scattered Clouds,120,2013-11-08 16:53:00
9:32 AM,69.8,53.6,56,30.03,10.0,ESE,6.9,-,N/A,,Scattered Clouds,120,2013-11-08 17:32:00
9:53 AM,69.8,53.6,56,30.03,10.0,East,5.8,-,N/A,,Scattered Clouds,100,2013-11-08 17:53:00
10:53 AM,73.4,46.4,38,30.02,10.0,ESE,5.8,-,N/A,,Partly Cloudy,120,2013-11-08 18:53:00
11:53 AM,73.0,54.0,51,30.00,10.0,West,9.2,-,N/A,,Scattered Clouds,260,2013-11-08 19:53:00
12:53 PM,73.0,55.9,55,29.97,10.0,West,9.2,-,N/A,,Scattered Clouds,270,2013-11-08 20:53:00
1:53 PM,72.0,53.1,51,29.96,10.0,West,9.2,-,N/A,,Scattered Clouds,270,2013-11-08 21:53:00
2:53 PM,71.1,48.9,45,29.95,10.0,West,8.1,-,N/A,,Partly Cloudy,280,2013-11-08 22:53:00
3:53 PM,66.9,55.9,68,29.94,10.0,West,9.2,-,N/A,,Partly Cloudy,260,2013-11-08 23:53:00
4:53 PM,64.9,55.0,70,29.94,10.0,West,8.1,-,N/A,,Partly Cloudy,270,2013-11-09 00:53:00
5:53 PM,63.0,57.9,84,29.95,10.0,West,6.9,-,N/A,,Partly Cloudy,270,2013-11-09 01:53:00
6:53 PM,62.1,59.0,90,29.97,10.0,West,4.6,-,N/A,Fog,Patches of Fog,260,2013-11-09 02:53:00
7:53 PM,62.1,59.0,90,29.97,9.0,WSW,4.6,-,N/A,Fog,Patches of Fog,250,2013-11-09 03:53:00
8:36 PM,60.8,59.0,94,29.98,9.0,WSW,5.8,-,N/A,,Scattered Clouds,250,2013-11-09 04:36:00
8:53 PM,61.0,57.9,90,29.99,9.0,SW,4.6,-,N/A,,Scattered Clouds,230,2013-11-09 04:53:00
9:53 PM,61.0,59.0,93,30.00,6.0,SSW,3.5,-,N/A,,Mostly Cloudy,210,2013-11-09 05:53:00
10:53 PM,60.1,57.9,93,30.01,6.0,Calm,Calm,-,N/A,,Mostly Cloudy,0,2013-11-09 06:53:00
11:44 PM,60.8,57.2,88,30.01,5.0,Calm,Calm,-,N/A,,Mostly Cloudy,0,2013-11-09 07:44:00
11:53 PM,61.0,57.0,87,30.01,5.0,Variable,3.5,-,N/A,,Mostly Cloudy,0,2013-11-09 07:53:00